Location: Dillon
(41.1766°N, 107.0923°W)
Time: 21:56:35
(UTC+00:00)

QB50P2 - Pass Details

Date: 30 June 2022
Orbit: 590 x 605 km, 97.9° (Epoch: 18 August)

Event Time Altitude Azimuth Distance (km) Brightness Sun altitude
Rises 09:34:29 0° 357° (N) 2,859 ? -17.7°
Reaches altitude 10° 09:37:07 10° 340° (NNW) 1,954 ? -17.4°
Maximum altitude 09:40:11 20° 294° (WNW) 1,420 ? -17.1°
Enters shadow 09:41:30 17° 269° (W) 1,531 ? -16.9°
